Location: New Frontier Mobile Home Park
(32.8448°N, 116.9675°W)
Time: 23:15:29
(UTC+00:00)

NOSS 0 Rocket - Pass Details

Date: 14 July 2020
Orbit: 934 x 955 km, 70.0° (Epoch: 05 August)

Event Time Altitude Azimuth Distance (km) Brightness Sun altitude
Rises 03:32:00 0° 184° (S) 3,573 6.7 -7.2°
Reaches altitude 10° 03:34:36 10° 178° (S) 2,633 6.0 -7.6°
Maximum altitude 03:40:24 47° 106° (ESE) 1,213 4.2 -8.7°
Drops below altitude 10° 03:46:16 10° 34° (NE) 2,655 6.3 -9.7°
Sets 03:48:53 0° 29° (NNE) 3,606 7.0 -10.1°
